Hourly Weather Roundup
Issued by NWS Central Illinois

Home | Current Version | Previous Version | Text Only | Print | Product List | Glossary On
Versions: 1 2 3 4 5 6 7 8 9 10 11 12 13 14 15 16 17 18 19 20 21 22 23 24 25 26 27 28 29 30 31 32 33 34 35 36 37 38 39 40 41 42 43 44 45 46 47 48 49 50
000
NZUS43 KILX 292310
HWRILX

AREA WEATHER ROUNDUP
NATIONAL WEATHER SERVICE, LINCOLN IL
600 PM CDT MON SEP 29 2014


CITY           SKY/WX    TMP DP  RH WIND       PRES   REMARKS
BLOOMINGTON    NOT AVBL
CHAMPAIGN      PTCLDY    77  55  47 NW6       29.95
DECATUR        PTCLDY    81  55  40 W3        29.95F HX  81
FLORA          CLEAR     81  52  36 NW6       29.95S HX  80
GALESBURG      CLEAR     79  56  46 SW5       29.95F HX  80
JACKSONVILLE   CLEAR     84  57  40 NW3       29.97S HX  83
LACON          CLEAR     79  56  44 NW3       29.94R HX  80
LAWRENCEVILLE  CLEAR     80  58  46 NE6       29.94F HX  80
LITCHFIELD     PTCLDY    82  52  35 W6        29.96R HX  81
$$


CITY           SKY/WX    TMP DP  RH WIND       PRES   REMARKS
LINCOLN        CLEAR     83  53  35 CALM      29.92S HX  82
MACOMB         CLEAR     80  56  42 W6        29.98S HX  80
MATTOON        CLEAR     79  56  45 NW6       29.94F HX  80
MT CARMEL AP   CLEAR     82  52  34 N3        29.94S HX  81
OLNEY-NOBLE AP CLEAR     81  57  44 CALM      29.95S HAZE    HX  81
PARIS          CLEAR     80  58  47 CALM      29.95F HX  80
PEORIA         CLEAR     83  58  42 CALM      29.95S HX  83
PONTIAC        CLEAR     82  55  39 NW5       29.94S HX  82
RANTOUL        CLEAR     83  49  30 W5        29.95S HX  81
ROBINSON       CLEAR     78  60  53 NE6       29.94F
SPRINGFIELD    CLEAR     83  59  44 NW5       29.96S HX  83
TAYLORVILLE    CLEAR     81  55  41 NW6       29.95S HX  80
$$

...REGIONAL REPORTS...


CITY           SKY/WX    TMP DP  RH WIND       PRES   REMARKS
CHICAGO O`HARE PTCLDY    72  57  59 NE16G23   29.93S
KANKAKEE       CLEAR     80  57  45 NW3       29.93F HX  80
MOLINE         NOT AVBL
MOUNT VERNON   NOT AVBL
PITTSFIELD     CLEAR     82  54  37 NW3       29.97F HX  81
QUINCY         CLEAR     80  57  45 W3        29.96F HX  80
ROCKFORD       PTCLDY    78  58  49 W5        29.94F
$$


CITY           SKY/WX    TMP DP  RH WIND       PRES   REMARKS
BURLINGTON     CLEAR     81  57  43 W3        29.96S HX  81
CEDAR RAPIDS   MOCLDY    79  61  53 SW10      29.94F HX  80
DES MOINES     PTSUNNY   79  61  53 CALM      29.96F HX  80
KIRKSVILLE     CLEAR     80  58  46 W3        29.99F HX  80
OTTUMWA        CLEAR     80  59  48 SW5       29.96F HX  81
ST LOUIS       PTCLDY    84  56  38 NW5       29.97S HX  83
$$


CITY           SKY/WX    TMP DP  RH WIND       PRES   REMARKS
TERRE HAUTE    CLEAR     76  60  57 NE5       29.95S
EVANSVILLE     CLEAR     83  53  35 N3        29.94S HX  82
INDIANAPOLIS   CLEAR     77  49  37 N6        29.94F
LAFAYETTE      PTCLDY    76  61  59 CALM      29.93F
MADISON        LGT RAIN  56  53  90 NE17      30.02R
MILWAUKEE      CLOUDY    54  47  77 N16G29    30.01R
$$





USA.gov is the U.S. government's official web portal to all federal, state and local government web resources and services.